Regional Weather Roundup
Issued by NWS Charleston, SC

Current Version | Previous Version | Graphics & Text | Print | Product List | Glossary On
Versions: 1 2 3 4 5 6 7 8 9 10 11 12 13 14 15 16 17 18 19 20 21 22 23 24 25 26 27 28 29 30 31 32 33 34 35 36 37 38 39 40 41 42 43 44 45 46 47 48 49 50
000 ASUS42 KCHS 031527 RWRCHS REGIONAL WEATHER ROUNDUP NATIONAL WEATHER SERVICE CHARLESTON SC 1100 AM EDT THU SEP 03 2015 NOTE: "FAIR" INDICATES FEW OR NO CLOUDS BELOW 12,000 FEET WITH NO SIGNIFICANT WEATHER AND/OR OBSTRUCTIONS TO VISIBILITY. NOT ALL STATIONS ARE QUALITY CONTROLLED BY THE NATIONAL WEATHER SERVICE. USE DATA WITH CAUTION...ESPECIALLY DEWPOINT OBSERVATIONS. SCZ027-030-031-034>040-042>050-031600- ...SOUTHEAST SOUTH CAROLINA... CITY SKY/WX TMP DP RH WIND PRES REMARKS N CHARLESTON MOSUNNY 85 73 67 W7 29.98S HX 91 WATERFRONT PRK N/A 82 75 79 VRB3 29.96R MOUNT PLEASANT FAIR 86 75 70 SW5 29.98S HX 95 JOHNS ISLAND FAIR 84 75 74 CALM 29.98S HX 92 PINOPOLIS N/A 84 73 70 VRB3 29.90S HX 91 MONCKS CORNER FAIR 88 72 58 W3 29.97F HX 94 SUMMERVILLE FAIR 86 73 66 W3 29.98F HX 93 BEAUFORT MCAS PTSUNNY 84 75 74 NW5 29.98F HX 92 BEAUFORT ARPT FAIR 82 75 78 CALM 29.97F HILTON HEAD IS MOSUNNY 81 73 78 N9 29.99S WALTERBORO SUNNY 88 72 58 NW5 29.98F HX 94 ALLENDALE FAIR 86 75 70 CALM 29.97F HX 95 ...SOUTHERN MIDLANDS AND PEE DEE... CITY SKY/WX TMP DP RH WIND PRES REMARKS GEORGETOWN NOT AVBL KINGSTREE NOT AVBL ORANGEBURG SUNNY 85 73 67 W3 29.99S HX 91 BARNWELL FAIR 90 75 62 N3 29.98F HX 100 AIKEN FAIR 82 68 61 NW5 30.03S MANNING FAIR 82 70 65 N3 29.97F COLUMBIA PTSUNNY 85 70 60 W7 29.98S SUMTER PTSUNNY 84 72 68 NW3 29.96S FLORENCE PTSUNNY 83 73 72 W5 29.97R MYRTLE BEACH CLOUDY 84 72 65 W5 29.98S N MYRTLE BEACH MOSUNNY 85 74 69 VRB6 29.95S HX 92 $$ GAZ063-065-086>088-099>101-113>116-118-119-134>141-150-031600- ...SOUTHEAST GEORGIA... CITY SKY/WX TMP DP RH WIND PRES REMARKS SAVANNAH ARPT PTSUNNY 84 74 71 N8 29.98F HX 91 HUNTER AAF PTSUNNY 82 79 89 N7 29.95F HX 92 FORT STEWART MOSUNNY 78 76 92 NW3 29.97S STATESBORO PTSUNNY 85 77 77 N6 29.99S HX 96 SYLVANIA NOT AVBL CLAXTON NOT AVBL ...CSRA...CENTRAL AND FAR SOUTHEAST GEORGIA... CITY SKY/WX TMP DP RH WIND PRES REMARKS THOMSON CLOUDY 84 77 79 CALM 30.04F HX 93 AUGUSTA-BUSH CLOUDY 84 74 71 W3 29.98F HX 91 AUGUSTA-DANIEL CLOUDY 84 72 67 NW3 30.00F SWAINSBORO CLOUDY 81 73 78 W3 30.01S VIDALIA CLOUDY 81 73 78 W3 30.01R EASTMAN FAIR 85 76 74 N3 30.03R HX 95 HAZLEHURST FAIR 83 77 81 CALM 30.00R HX 92 ALMA PTSUNNY 83 75 77 N7 30.00S HX 90 WAYCROSS MOSUNNY 87 79 78 N6 30.00S HX 100 JESUP FAIR 86 79 79 N8 29.99S HX 99 BAXLEY PTSUNNY 84 77 79 N3 30.00S HX 94 BRUNSWICK PTSUNNY 79 73 83 NW9 29.98S SAINT SIMONS CLOUDY 80 76 87 W10 29.96F $$ SCZ027-028-034-036>038-045-046-048>050-GAZ119-141-031600- ...LAKE AND SUPPLEMENTAL COASTAL OBSERVATIONS... STATION/POSITION TIME TEMP WIND PRES WAVE SWELL AIR SEA DIR/SP/G HT/PER HT/PER/DIR (UTC) (F) (DEG/KT/KT) (MB) (FT/S) (FT/S/D) UPR LAKE MARION NOT AVBL WINYAH BAY 1400 81 300/ 3 1014.0 LAKE MURRAY 1500 83 260/ 2/ 3 1014.9R ACE BASIN NERRS NOT AVBL FORT PULASKI 1500 360/ 7/ 9 1015.3F SAPELO ISLAND 1500 79 320/ 11 1015.0S $$ ANZ835-935-AMZ111-154-330-350-352-354-370-450-454-472-031600- ...C-MAN AND BUOY OBSERVATIONS... STATION/POSITION TIME TEMP WIND PRES WAVE SWELL AIR SEA DIR/SP/G HT/PER HT/PER/DIR (UTC) (F) (DEG/KT/KT) (MB) (FT/S) (FT/S/D) BUOY 41004 1450 78 84 240/ 8/ 10 1015.0R 2/ 7 2/ 7 BUOY 41008 1450 79 84 350/ 6/ 6 1013.9F 2/ 4 2/190/ 4 FOLLY BEACH CMAN 1500 83 180/ 2/ 3 1015.5S CAPERS NEARSHORE 1408 81 290/ 4/ 6 1015.1R FRIPP NEARSHORE 1400 78 100/ 4/ 4 1014.8R STATION/POSITION TIME TEMP WIND PRES WAVE SWELL AIR SEA DIR/SP/G HT/PER HT/PER/DIR (UTC) (F) (DEG/KT/KT) (MB) (FT/S) (FT/S/D) 5E ST. MARYS GA 1421 85 N/A 2/ 9 FRYING PAN BUOY 1450 82 82 200/ 6/ 6 1014.7S 2/ 7 2/140/ 7 BUOY 41025 1450 80 85 30/ 4/ 4 1013.8F 1/13 2/200/13 CAPE LOOKOUT NC 1500 78 90/ 4/ 5 1013.9R BUOY 41002 1450 84 84 310/ 4/ 6 1014.4R 2/13 2/ 50/13 BUOY 41010 1420 82 86 240/ 12/ 14 1015.2F ST AUGUSTINE FL 1500 84 82 300/ 7/ 10 1015.7F $$

USA.gov is the U.S. government's official web portal to all federal, state and local government web resources and services.